ATLAS 5 CENTAUR DEB, 43968

Orbit data source: Space-Track

ATLAS 5 CENTAUR DEB, 43968 is space debris in HEO originally from a launch on Wed, 17 Sep 2014 UTC launched from the Air Force Eastern Test Range (AFETR). Debris objects in space refer to the collection of defunct objects orbiting the Earth. Examples of debris include non-operational satellites, rocket bodies, and fragments generated from explosions, collisions, or faulty payload assembly.

Loading next visibility...
Identifier
43968, 2014-055X
Orbit
HEO
Country
Flag of USUS
Related business
Flag of USUnited Launch Alliance/Lockheed Martin (US)
Manufacturer
Unknown
Mission
Spacecraft
Bus & Motor
Unknown
Mass
Unknown
Launch date (UTC)
2014-09-17 (12 years ago)
Launch vehicle
Unknown
Launch site
Air Force Eastern Test Range (AFETR)
Object type
Payload
Rocket body
Debris
Shape & HBR
Unknown shape, 1.1 m
Radar Cross Section
Medium (>0.1 m² and <1 m²)

Expand to show TLE details & history
Last TLE update: 1 week ago

TLE from 1 week ago
0 ATLAS 5 CENTAUR DEB
1 43968U 14055X   26228.48267962 -.00000143  00000-0  00000-0 0  9998
2 43968  20.3982 125.9980 5007515 195.0618 141.7030  1.83130834 53198
Epoch: 2026-08-16T11:35Z
TLE epoch observation values (Epoch: 2026-08-16T11:35:03.519Z)
Latitude
0.00008°
Longitude
-12.60749°
Altitude
34,584.213 km
Speed
2.31 km/s
True Right ascension
08h 24m 08s
True Declination
0° 00' 00"
Sunlit
Object was in daylight at epoch
Visualization orbit readout
Latitude
Unknown
Longitude
Unknown
Altitude
Unknown
Speed
Unknown
Apparent Right ascension
Unknown
Apparent Declination
Unknown
Sunlit
N/A
Visualization observer readout
Local Sidereal Time
01:51:58
Azimuth
Unknown
Elevation
Unknown
Doppler factor
Unknown
Orbital elements
Apogee altitude
35,976.425 km
Perigee altitude
7,711.772 km
Semi-major axis
28,222.235 km
Eccentricity
0.50075
Inclination
20.3982°
RAAN
125.998°
Arg. of periapsis
195.0618°
True anomaly
164.94575°
Mean anomaly
141.703°
Eccentric anomaly
154.19324°
Mean motion
0.45778 °/min
Orbital period
786.41 mins
BSTAR
0
Loading maneuver chart data...
Computing Atmospheric mass density...

Documentation

Showing up to 5 results
|